SCP
-0 0 0 0 0 0 0 0 0 0 0 0 0 0 0 0 0 -0 0 0 0 0 0 0 0 0 0 0 0 0 0 0 0 0 0 0 0 0 0 0 0 0 0 0 0 0 0 0 0 0 0 0 0 0
0 0 0 0 0 0 0 0 0 0 0 0 0 0 0 0 0 0 0 0 0 0 0 0 0 0 0 0 0 0 0 0 0 0 0 0 0 0 0 0 0 0 0 0 0 0 0 0 0 0 0 0 0 0
0 0 0 0 0 0 0 0 0 0 0 0 0 0 0 0 0 0 0 0 0 0 0 0 0 0 0 0 0 0 0 0 0 0 0 0 0 0 0 0 0 0 0 0 0 0 0 0 0 0 0 0 0 0
0 0 0 0 0 0 0 0 0 0 0 0 0 0 0 0 0 0 0 0 0 0 0 0 0 0 0 0 0 0 0 0 0 0 0 0 0 0 0 0 0 0 0 0 0 0 0 0 0 0 0 0 0 0
0 0 0 0 0 0 0 0 0 0 0 0 0 0 0 0 0 0 0 0 0 0 0 0 0 0 0 0 0 0 0 0 0 0 0 0 0 0 0 0 0 0 0 0 0 0 0 0 0 0 0 0 0 0
0 0 0 0 0 0 0 0 0 0 0 0 0 0 0 0 0 0 0 0 0 0 0 0 0 0 0 0 0 0 0 0 0 0 0 0 0 0 0 0 0 0 0 0 0 0 0 0 0 0 0 0 0 0
0 0 0 0 0 0 0 0 0 0 0 0 0 0 0 0 0 0 0 0 0 0 0 0 0 0 0 0 0 0 0 0 0 0 0 0 0 0 0 0 0 0 0 0 0 0 0 0 0 0 0 0 0 0
0 0 0 0 0 0 0 0 0 0 0 0 0 0 0 0 0 0 0 0 0 0 0 -0 0 0 0 0 0 0 0 0 0 0 0 0 0 0 0 0 0 0 0 0 0 0 0 0 0 0 0 0 0 0
0 0 0 0 0 0 0 0 0 0 0 0 0 0 0 0 0 0 0 0 0 0 0 0 0 0 0 0 0 0 0 0 0 0 0 0 0 0 0 0 0 0 0 0 0 0 0 0 0 0 0 0 0 0
0 0 0 0 0 0 0 0 0 0 0 0 0 0 0 0 0 0 0 0 0 0 0 -0 0 0 0 0 0 0 0 0 0 0 0 0 0 0 0 0 0 0 0 0 0 0 0 0 0 0 0 0 0 0
0 0 0 0 0 0 0 0 0 0 0 0 0 0 0 0 0 0 0 0 0 0 0 0 0 0 0 0 0 0 0 0 0 0 0 0 0 0 0 0 0 0 0 0 0 0 0 0 0 0 0 0 0 0
0 0 0 0 0 0 0 0 0 0 0 0 0 0 0 0 0 0 -0 0 0 0 0 0 0 0 0 0 0 0 0 0 0 0 0 0 0 0 0 0 0 0 0 0 0 0 0 0 0 0 0 0 0 0
0 0 0 0 0 0 0 0 0 0 0 0 0 0 0 0 0 0 0 0 0 0 0 0 0 0 0 0 0 0 0 0 0 0 0 0 0 0 0 0 0 0 0 0 0 0 0 0 0 0 0 0 0 0
0 0 0 0 0 0 0 0 0 0 0 0 0 0 0 0 0 0 0 0 0 0 0 0 0 0 0 0 0 0 0 0 0 0 0 0 0 0 0 0 0 0 0 0 0 0 0 0 0 0 0 0 0 0
0 0 0 0 0 0 0 0 0 0 0 0 0 0 0 0 0 0 0 0 0 0 0 0 0 0 0 0 0 0 0 0 0 0 0 0 0 0 0 0 0 0 0 0 0 0 0 0 0 0 0 0 0 0
0 0 0 0 0 0 0 0 0 0 0 0 0 0 0 0 0 0 0 0 0 0 0 0 0 0 0 0 0 0 0 0 0 0 0 0 0 0 0 0 0 0 0 0 0 0 0 0 0 0 0 0 0 0
0 0 0 0 0 0 0 0 0 0 0 0 0 0 0 0 0 0 0 0 0 0 0 0 0 0 0 0 0 0 0 0 0 0 0 0 0 0 0 0 0 0 0 0 0 0 0 0 0 0 0 0 0 0
0 0 0 0 0 -0 -0 0 0 0 0 0 0 0 0 0 0 0 0 0 0 0 0 0 0 0 0 0 0 0 0 0 0 0 0 0 0 0 0 0 0 0 0 0 0 0 0 0 0 0 0 0 0 0
0 0 0 0 -0 -0 0 0 0 0 0 0 0 0 0 0 0 0 0 0 0 0 0 0 0 0 0 0 0 0 0 0 0 0 0 0 0 0 0 0 0 0 0 0 0 0 0 0 0 0 0 0 0 0
0 0 0 0 0 0 0 0 0 0 0 0 0 0 0 0 0 0 0 0 0 0 0 0 0 0 0 0 0 0 0 0 0 0 0 0 0 0 0 0 0 0 0 0 0 0 0 0 0 0 0 0 0 0
0 0 0 0 0 0 0 0 0 0 0 0 0 0 0 0 0 0 0 0 0 0 0 0 0 0 0 0 0 0 0 0 0 0 0 0 0 0 0 0 0 0 0 0 0 0 0 0 0 0 0 0 0 0
0 0 0 0 0 0 0 0 0 0 0 0 0 0 0 0 0 0 0 0 0 0 0 0 0 0 0 0 0 0 0 0 0 0 0 0 0 0 0 0 0 0 0 0 0 0 0 0 0 0 0 0 0 0
0 0 0 0 0 0 0 0 0 0 0 0 0 0 0 0 0 0 0 0 0 0 0 0 0 0 0 0 0 0 0 0 0 0 0 0 0 0 0 0 0 0 0 0 0 0 0 0 0 0 0 0 0 0
0 0 0 0 0 0 0 0 0 0 0 0 0 0 0 0 0 0 0 0 0 0 0 0 0 0 0 0 0 0 0 0 0 0 0 0 0 0 0 0 0 0 0 0 0 0 0 0 0 0 0 0 0 0
0 0 0 0 0 0 0 0 0 0 0 0 0 0 0 0 0 0 0 0 0 0 0 0 0 0 0 0 0 0 0 0 0 0 0 0 0 0 0 0 0 0 0 0 0 0 0 0 0 0 0 0 0 0
0 0 0 0 0 0 0 0 0 0 0 0 0 0 0 0 0 0 0 0 0 0 0 0 0 0 0 0 0 0 0 0 0 0 0 0 0 0 0 0 0 0 0 0 0 0 0 0 0 0 0 0 0 0
-0 0 0 0 0 0 0 0 0 0 0 0 0 0 0 0 0 0 0 0 0 0 0 0 0 0 0 0 0 0 0 0 0 0 0 0 0 0 0 0 0 0 0 0 0 0 0 0 0 0 0 0 0 0
0 0 0 0 0 0 0 0 0 0 0 0 0 0 0 0 0 0 0 0 0 0 0 0 0 0 0 0 0 0 0 0 0 0 0 0 0 0 0 0 0 0 0 0 0 0 0 0 0 0 0 0 0 0
0 0 0 0 0 0 0 0 0 0 0 0 0 0 0 0 0 0 0 0 0 0 0 0 0 0 0 0 0 0 0 0 0 0 0 0 0 0 0 0 0 0 0 0 0 0 0 0 0 0 0 0 0 0
0 0 0 0 0 0 0 0 0 0 0 0 0 0 0 0 0 0 0 0 0 0 0 0 0 0 0 0 0 0 0 0 0 0 0 0 0 0 0 0 0 0 0 0 0 0 0 0 0 0 0 0 0 0
0 0 0 0 0 0 0 0 0 0 0 0 0 0 0 0 0 0 0 -0 -0 0 0 0 0 0 0 0 0 0 0 0 0 0 0 0 0 0 0 0 0 0 0 0 0 0 0 0 0 0 0 0 0 0
0 0 0 0 0 0 0 0 0 0 0 0 0 0 0 0 0 0 -0 0 0 0 0 0 0 0 0 0 0 0 0 0 0 0 0 0 0 0 0 0 0 0 0 0 0 0 0 0 0 0 0 0 0 0
0 0 0 0 0 0 0 0 0 0 0 0 0 0 0 0 0 0 0 0 0 0 0 0 0 0 0 0 0 0 0 0 0 0 0 0 0 -0 0 0 0 0 -0 0 0 0 0 0 0 0 0 0 0 0
Wind_Speed_500mb
56 54 51 47 49 50 48 46 42 41 38 41 44 41 40 40 36 50 54 64 66 21 23 37 50 30 16 20 21 10 8 5 1 7 8 8 9 13 7 11 19 21 17 9 10 11 14 15 9 15 2 5 9 8
50 50 47 43 42 44 44 44 42 41 42 41 44 42 44 43 41 31 54 50 71 42 17 44 47 42 51 38 26 28 6 6 16 5 6 3 4 6 11 12 5 9 12 13 16 10 4 17 8 8 3 6 8 10
42 44 42 40 41 41 42 40 42 44 47 47 47 47 47 47 45 47 48 36 47 45 35 37 47 40 39 50 47 18 16 15 12 10 4 3 6 4 9 9 4 6 0 4 7 11 8 16 18 16 9 3 8 8
40 40 40 40 41 41 41 43 45 50 52 50 50 51 51 45 52 55 51 47 48 13 7 16 42 62 61 48 53 53 30 23 13 16 4 4 5 10 5 2 4 6 9 9 8 7 12 28 33 23 15 5 4 4
43 39 37 39 38 39 41 41 34 34 38 44 46 47 47 49 50 49 51 54 51 46 2 6 30 46 43 50 52 50 45 29 15 6 5 6 7 7 1 2 5 11 11 9 10 14 9 7 22 40 22 10 3 4
43 39 38 36 37 34 29 27 27 25 30 31 35 41 46 49 48 37 37 59 65 54 14 4 7 30 39 33 38 39 41 34 17 12 5 7 8 7 7 6 7 32 20 18 8 16 21 6 9 26 26 14 7 2
38 34 32 30 27 26 20 18 19 20 20 18 20 25 33 46 49 53 18 20 34 53 13 3 3 12 33 31 26 25 33 15 14 13 9 10 9 16 3 6 10 27 25 23 14 16 13 9 3 2 14 14 13 13
35 36 29 22 20 21 21 19 21 21 20 25 24 26 28 32 46 61 73 63 22 54 21 7 2 10 39 17 10 21 16 15 14 10 11 6 10 3 5 12 12 31 25 14 12 17 2 7 12 17 19 19 16 17
33 35 30 25 24 24 29 31 31 29 25 25 27 28 35 37 46 64 62 62 67 34 4 9 14 11 31 14 14 15 12 4 10 4 4 13 3 8 6 5 19 13 13 13 21 21 18 17 16 16 17 17 15 12
29 33 33 29 31 31 32 35 32 29 25 27 27 17 14 26 47 32 32 36 43 33 28 6 10 7 34 14 7 9 12 6 4 7 18 4 5 13 9 15 16 15 12 17 27 21 17 15 13 11 9 7 7 8
24 29 29 27 27 28 25 27 27 27 27 22 13 16 18 18 35 21 7 15 12 8 23 17 22 12 18 7 7 10 5 4 6 7 9 6 6 8 7 8 9 10 10 14 19 20 17 14 12 10 6 3 5 9
17 19 23 26 23 19 17 20 23 25 26 15 11 17 27 21 11 8 8 6 11 14 11 16 22 27 17 16 7 7 7 4 9 9 7 4 3 7 4 3 3 5 7 10 11 10 10 8 8 9 12 14 15 16
17 16 17 11 11 12 18 22 21 27 22 29 18 14 10 8 11 15 16 5 6 8 22 27 18 20 12 10 5 6 8 8 13 5 8 3 9 9 6 3 6 6 8 8 8 8 8 8 7 7 6 7 9 11
17 15 12 11 13 23 26 28 26 27 25 22 15 14 11 7 9 5 7 8 5 10 44 48 9 7 11 6 6 10 6 8 5 5 10 2 4 8 7 7 9 12 15 16 16 16 15 13 11 9 6 5 4 4
15 11 7 9 24 26 22 29 35 35 29 16 13 10 7 2 9 2 8 8 9 39 54 26 14 8 4 9 5 8 6 7 10 9 3 6 6 7 10 12 13 14 17 18 19 18 18 17 16 17 16 14 12 12
8 11 9 22 30 36 29 22 19 41 5 8 11 4 5 4 5 9 12 8 18 33 31 13 7 6 5 10 8 5 15 12 5 3 10 11 13 16 18 19 21 23 24 26 26 26 25 23 21 21 20 18 16 14
5 5 18 23 31 37 27 7 4 13 12 11 5 19 11 19 8 10 19 18 7 10 4 4 8 4 7 8 6 8 5 4 16 20 18 16 19 22 24 25 27 27 28 29 30 29 27 26 22 19 16 18 14 12
9 17 22 25 27 28 11 15 11 13 11 14 6 11 19 27 13 17 26 31 13 11 9 6 11 13 8 8 6 4 14 28 29 25 22 22 25 26 27 29 30 29 28 28 26 26 25 20 17 19 17 15 12 11
23 26 27 22 15 8 7 11 12 8 9 8 18 25 28 26 44 31 25 25 36 28 19 14 15 8 6 9 7 18 17 13 27 28 30 27 27 28 29 30 30 28 27 27 24 24 22 19 18 17 14 11 6 6
21 27 17 10 2 5 11 11 9 13 5 9 16 20 17 19 21 35 55 53 43 20 18 12 7 7 6 5 13 17 14 24 32 32 31 30 29 28 28 27 27 26 24 23 22 21 18 15 14 12 8 5 5 4
3 4 1 10 8 19 15 10 12 10 12 14 14 12 16 25 26 32 34 37 30 18 7 17 18 19 13 12 15 16 22 24 24 20 31 30 27 26 26 26 22 21 20 21 18 19 14 14 12 9 7 6 7 7
9 14 14 16 13 12 16 19 10 8 11 11 12 13 13 6 13 25 20 43 17 18 12 14 23 24 26 29 28 26 27 29 30 31 28 27 29 27 28 28 22 23 21 20 16 15 14 12 9 8 8 9 10 11
11 12 17 21 13 17 9 15 11 15 7 5 8 7 7 8 12 16 14 18 13 20 19 23 24 25 32 32 31 31 30 31 36 37 33 33 33 29 27 25 23 21 19 18 15 13 11 10 9 10 12 13 14 16
18 19 22 19 30 7 10 14 14 12 10 7 7 7 8 8 11 13 9 9 19 20 23 19 19 30 36 38 39 35 31 28 33 35 32 28 31 31 25 24 20 17 16 14 11 10 10 12 14 16 18 20 22 24
16 27 20 17 21 16 13 9 12 8 9 10 8 8 6 9 7 8 6 6 22 24 23 26 29 31 35 33 32 32 31 27 24 31 28 19 18 17 15 13 13 12 11 7 7 10 14 17 21 24 28 32 35 38
18 22 15 15 15 10 10 8 11 14 9 8 10 7 8 6 9 9 4 4 11 18 23 26 26 28 30 28 25 24 26 28 21 21 26 18 12 9 9 8 8 10 15 19 23 24 27 31 35 38 39 41 45 50
14 10 16 23 11 9 9 13 13 10 12 12 7 6 6 10 8 4 9 8 10 15 18 19 19 20 21 20 19 18 16 13 6 4 6 6 6 8 12 15 19 22 26 30 34 37 39 41 44 45 47 47 47 50
15 20 12 26 17 25 8 8 11 12 8 14 5 11 7 6 5 9 9 14 13 14 14 16 16 12 10 8 6 4 3 2 6 10 11 11 14 18 21 23 28 31 32 33 34 34 36 38 42 45 48 52 55 53
15 31 11 14 10 16 18 10 11 11 18 4 4 5 6 8 19 25 22 16 13 11 9 8 10 12 12 10 9 7 5 3 5 10 13 14 14 13 19 22 24 25 26 27 28 32 35 39 43 50 55 59 61 61
34 40 11 16 10 12 21 21 27 36 34 29 27 43 42 37 30 25 18 13 8 4 7 12 13 9 5 5 8 8 5 4 6 8 10 12 15 17 19 21 23 26 30 34 36 37 38 42 45 45 47 50 51 53
16 18 17 19 12 12 20 32 48 52 59 58 55 51 33 25 34 27 24 21 15 10 8 11 13 10 9 8 8 9 11 12 14 17 20 22 24 26 28 29 31 34 36 38 39 42 45 47 49 52 52 52 50 52
20 18 7 7 5 13 11 10 12 12 13 13 14 10 8 6 6 6 10 19 26 24 17 12 13 12 13 14 15 17 17 16 20 24 27 29 28 28 30 30 32 36 36 37 39 41 44 48 51 52 54 54 53 53
9 13 13 6 7 8 17 11 9 5 11 8 11 12 10 5 5 4 9 12 19 23 19 15 16 16 17 18 20 20 21 24 26 27 29 30 30 30 31 32 34 36 38 40 42 45 48 49 51 51 52 54 56 56
Wind_Direction_500mb
265 261 263 261 253 249 245 239 239 244 243 253 258 252 262 260 229 246 249 219 219 216 237 214 221 207 187 206 227 151 129 200 44 215 205 174 188 201 173 183 174 174 178 198 213 232 247 164 105 176 242 11 0 330
264 259 256 258 253 246 239 237 241 245 249 254 253 249 248 254 256 249 237 247 224 224 232 220 227 229 223 231 233 192 252 176 191 187 196 127 155 171 177 229 111 215 196 178 193 208 182 197 174 195 244 332 341 331
267 256 252 253 254 247 242 242 245 249 253 251 249 251 242 244 250 244 242 250 231 210 222 223 227 226 228 226 230 209 220 207 212 196 159 146 211 124 184 227 129 237 132 166 129 209 217 223 215 195 199 284 320 293
269 259 253 254 254 246 243 246 250 253 250 251 247 243 243 237 238 241 236 240 233 259 206 228 227 234 235 229 223 230 230 209 212 196 173 172 177 189 209 203 150 200 147 159 284 263 304 258 229 199 181 173 2 18
271 258 255 252 251 250 245 246 251 261 256 250 245 242 239 236 235 240 251 247 245 219 260 219 217 219 216 216 217 219 228 217 178 167 189 215 133 141 58 97 218 198 175 181 219 196 158 271 263 206 216 202 353 36
267 256 252 248 238 235 232 238 249 262 259 256 251 247 241 236 231 235 257 253 241 243 225 210 239 192 196 198 198 205 214 212 194 180 175 200 188 174 168 198 250 201 204 201 237 222 184 61 61 201 223 239 268 199
258 247 241 235 231 231 226 239 252 253 261 251 248 254 247 234 225 216 209 245 225 220 222 110 243 192 172 167 188 199 197 193 185 167 182 159 199 186 156 191 229 192 181 194 223 170 206 232 124 156 215 210 200 180
252 237 224 224 237 246 252 255 260 258 267 275 276 270 267 248 232 231 227 233 195 184 198 174 169 169 170 148 158 186 176 176 177 159 149 156 144 160 215 235 206 178 181 189 177 192 227 171 147 110 102 111 151 174
248 234 221 229 242 249 253 253 256 259 264 270 289 286 274 243 226 229 231 236 223 205 205 121 175 190 165 133 142 162 168 176 156 145 211 148 166 211 201 225 134 139 164 162 176 143 125 129 127 117 110 108 111 128
243 241 232 234 248 253 259 250 250 248 257 260 281 284 238 224 224 216 217 198 209 206 195 182 135 202 164 137 158 128 166 153 171 226 146 132 228 103 100 129 140 145 157 170 172 166 160 150 139 141 140 154 177 200
241 234 234 242 247 254 256 243 238 245 238 251 221 221 240 194 176 200 273 182 178 170 179 136 155 178 181 127 137 168 166 133 133 237 135 200 278 118 109 136 148 152 148 131 150 156 154 152 148 150 155 185 259 264
212 222 230 234 240 242 259 257 244 236 226 207 270 265 206 178 182 191 194 253 187 175 174 163 159 161 142 146 112 172 135 120 198 154 104 237 117 60 149 169 154 150 150 147 152 165 179 199 225 248 260 263 259 254
219 220 209 200 238 264 277 279 249 252 262 251 222 222 211 194 202 190 194 195 160 174 174 154 147 140 127 141 114 141 123 194 127 80 211 179 98 42 49 111 132 125 139 149 157 172 179 182 190 201 217 234 248 252
155 173 216 257 296 300 279 275 269 270 235 206 175 219 207 190 228 204 184 156 137 175 145 154 114 143 139 128 140 129 129 115 105 152 226 106 40 25 44 67 139 122 131 133 134 134 139 137 136 130 133 136 131 175
154 202 237 334 345 330 303 277 262 223 220 185 174 225 205 201 46 307 150 107 70 161 152 134 93 115 143 115 103 119 107 166 191 206 113 115 84 73 83 90 99 110 115 118 118 121 122 119 120 116 109 108 112 119
131 212 241 331 350 344 337 328 203 194 208 95 58 101 328 89 350 17 355 92 125 168 157 106 126 124 110 120 124 119 135 190 138 101 108 120 99 90 91 96 99 101 106 109 109 107 105 104 100 95 94 92 88 82
287 225 314 333 344 342 340 337 131 69 60 37 35 39 79 72 46 28 13 338 24 203 147 118 110 153 100 92 82 12 58 105 116 106 108 110 106 98 96 99 102 103 108 111 111 113 113 105 100 103 103 99 99 101
296 298 305 321 333 341 8 42 71 64 63 31 69 35 70 51 22 22 4 4 25 19 44 61 19 51 49 104 124 68 89 93 99 104 102 101 97 99 102 102 101 101 104 106 106 105 102 107 113 105 105 103 90 84
309 302 305 321 337 345 62 50 53 89 64 82 78 57 68 78 46 44 40 56 73 84 85 47 56 44 44 47 89 80 95 127 102 99 91 95 101 102 102 102 101 102 103 102 104 103 100 98 94 92 89 88 89 78
263 273 299 310 261 105 81 47 66 83 72 87 62 46 65 68 47 36 43 51 53 50 49 44 40 25 45 54 85 108 114 125 129 107 98 96 99 108 109 109 109 109 108 105 103 97 92 93 94 85 77 56 31 354
238 246 316 164 78 65 76 44 62 67 95 72 75 60 79 51 37 22 27 28 57 35 64 48 56 63 77 83 103 111 118 131 142 130 118 108 107 110 111 110 111 113 112 107 102 96 92 81 72 61 42 15 355 340
91 107 90 70 71 71 66 38 61 67 73 93 65 56 48 41 33 24 34 40 64 18 29 49 63 71 82 86 91 101 108 113 116 120 119 115 117 121 117 112 120 111 105 95 92 83 71 62 44 21 360 348 337 324
78 62 55 35 77 48 20 25 53 28 60 63 59 52 47 56 49 38 74 51 62 22 55 75 83 88 89 93 95 101 109 111 110 110 113 113 110 109 111 109 99 92 91 84 71 61 50 35 11 353 347 336 327 319
62 52 31 36 27 21 13 33 31 30 49 47 49 57 41 41 55 67 70 54 7 52 78 92 106 103 98 97 92 94 101 108 110 109 107 113 110 100 94 89 86 82 74 61 41 22 7 351 344 335 327 323 320 316
74 14 26 5 11 13 29 24 10 11 56 32 71 57 41 41 68 68 68 31 31 55 72 89 95 95 94 92 94 95 101 104 107 110 104 90 87 96 95 83 69 59 46 12 331 331 329 324 319 317 318 316 312 309
68 25 39 6 4 22 2 41 28 15 4 58 49 63 49 64 68 68 80 80 47 59 70 77 84 89 88 92 101 104 100 97 92 98 100 98 88 62 48 31 2 341 331 328 323 319 316 315 314 312 310 309 309 309
44 350 15 17 359 359 60 45 34 45 42 28 4 28 51 66 73 89 122 123 94 79 70 72 74 75 78 79 82 87 93 95 97 55 47 22 352 337 332 328 325 324 323 324 323 321 319 318 317 316 315 314 314 314
49 32 20 356 39 31 59 42 31 21 4 346 336 39 66 56 104 140 133 128 104 79 59 55 58 68 75 74 69 68 58 317 306 309 310 310 313 316 318 324 324 323 323 321 320 319 319 319 318 317 318 317 316 316
20 350 20 21 35 52 38 29 10 348 336 357 62 85 101 80 122 130 131 120 104 76 37 39 42 50 47 39 37 24 12 321 282 270 283 290 301 306 314 316 316 316 317 317 317 317 318 317 317 316 315 315 314 313
10 20 58 27 47 46 14 43 44 58 71 87 100 105 98 101 112 118 119 111 93 84 76 63 56 53 35 6 343 351 346 337 332 329 332 331 328 320 317 317 315 314 314 315 315 314 312 308 307 307 310 313 315 315
34 35 46 47 72 59 74 80 75 75 81 83 92 91 94 102 94 91 89 78 61 42 33 23 6 4 358 344 337 332 329 326 329 328 325 322 320 318 316 316 315 315 316 315 314 314 316 318 320 321 322 322 323 321
32 37 49 63 56 40 72 63 63 71 61 65 52 67 75 99 107 116 57 40 37 42 52 30 6 357 351 349 344 337 333 325 321 321 318 316 316 312 310 310 310 310 311 313 317 319 321 321 320 322 322 322 323 323
40 38 50 53 34 29 15 21 50 77 53 48 40 36 36 49 90 53 5 3 4 2 1 1 357 354 352 348 342 335 331 328 325 322 319 319 318 317 317 317 316 317 317 319 322 322 322 321 319 320 320 320 320 322
Wind_Speed_850mb
56 54 51 47 49 50 48 46 42 41 38 41 44 41 40 40 36 50 54 64 66 21 23 37 50 30 16 20 21 10 8 5 1 7 8 8 9 13 7 11 19 21 17 9 10 11 14 15 9 15 2 5 9 8
50 50 47 43 42 44 44 44 42 41 42 41 44 42 44 43 41 31 54 50 71 42 17 44 47 42 51 38 26 28 6 6 16 5 6 3 4 6 11 12 5 9 12 13 16 10 4 17 8 8 3 6 8 10
42 44 42 40 41 41 42 40 42 44 47 47 47 47 47 47 45 47 48 36 47 45 35 37 47 40 39 50 47 18 16 15 12 10 4 3 6 4 9 9 4 6 0 4 7 11 8 16 18 16 9 3 8 8
40 40 40 40 41 41 41 43 45 50 52 50 50 51 51 45 52 55 51 47 48 13 7 16 42 62 61 48 53 53 30 23 13 16 4 4 5 10 5 2 4 6 9 9 8 7 12 28 33 23 15 5 4 4
43 39 37 39 38 39 41 41 34 34 38 44 46 47 47 49 50 49 51 54 51 46 2 6 30 46 43 50 52 50 45 29 15 6 5 6 7 7 1 2 5 11 11 9 10 14 9 7 22 40 22 10 3 4
43 39 38 36 37 34 29 27 27 25 30 31 35 41 46 49 48 37 37 59 65 54 14 4 7 30 39 33 38 39 41 34 17 12 5 7 8 7 7 6 7 32 20 18 8 16 21 6 9 26 26 14 7 2
38 34 32 30 27 26 20 18 19 20 20 18 20 25 33 46 49 53 18 20 34 53 13 3 3 12 33 31 26 25 33 15 14 13 9 10 9 16 3 6 10 27 25 23 14 16 13 9 3 2 14 14 13 13
35 36 29 22 20 21 21 19 21 21 20 25 24 26 28 32 46 61 73 63 22 54 21 7 2 10 39 17 10 21 16 15 14 10 11 6 10 3 5 12 12 31 25 14 12 17 2 7 12 17 19 19 16 17
33 35 30 25 24 24 29 31 31 29 25 25 27 28 35 37 46 64 62 62 67 34 4 9 14 11 31 14 14 15 12 4 10 4 4 13 3 8 6 5 19 13 13 13 21 21 18 17 16 16 17 17 15 12
29 33 33 29 31 31 32 35 32 29 25 27 27 17 14 26 47 32 32 36 43 33 28 6 10 7 34 14 7 9 12 6 4 7 18 4 5 13 9 15 16 15 12 17 27 21 17 15 13 11 9 7 7 8
24 29 29 27 27 28 25 27 27 27 27 22 13 16 18 18 35 21 7 15 12 8 23 17 22 12 18 7 7 10 5 4 6 7 9 6 6 8 7 8 9 10 10 14 19 20 17 14 12 10 6 3 5 9
17 19 23 26 23 19 17 20 23 25 26 15 11 17 27 21 11 8 8 6 11 14 11 16 22 27 17 16 7 7 7 4 9 9 7 4 3 7 4 3 3 5 7 10 11 10 10 8 8 9 12 14 15 16
17 16 17 11 11 12 18 22 21 27 22 29 18 14 10 8 11 15 16 5 6 8 22 27 18 20 12 10 5 6 8 8 13 5 8 3 9 9 6 3 6 6 8 8 8 8 8 8 7 7 6 7 9 11
17 15 12 11 13 23 26 28 26 27 25 22 15 14 11 7 9 5 7 8 5 10 44 48 9 7 11 6 6 10 6 8 5 5 10 2 4 8 7 7 9 12 15 16 16 16 15 13 11 9 6 5 4 4
15 11 7 9 24 26 22 29 35 35 29 16 13 10 7 2 9 2 8 8 9 39 54 26 14 8 4 9 5 8 6 7 10 9 3 6 6 7 10 12 13 14 17 18 19 18 18 17 16 17 16 14 12 12
8 11 9 22 30 36 29 22 19 41 5 8 11 4 5 4 5 9 12 8 18 33 31 13 7 6 5 10 8 5 15 12 5 3 10 11 13 16 18 19 21 23 24 26 26 26 25 23 21 21 20 18 16 14
5 5 18 23 31 37 27 7 4 13 12 11 5 19 11 19 8 10 19 18 7 10 4 4 8 4 7 8 6 8 5 4 16 20 18 16 19 22 24 25 27 27 28 29 30 29 27 26 22 19 16 18 14 12
9 17 22 25 27 28 11 15 11 13 11 14 6 11 19 27 13 17 26 31 13 11 9 6 11 13 8 8 6 4 14 28 29 25 22 22 25 26 27 29 30 29 28 28 26 26 25 20 17 19 17 15 12 11
23 26 27 22 15 8 7 11 12 8 9 8 18 25 28 26 44 31 25 25 36 28 19 14 15 8 6 9 7 18 17 13 27 28 30 27 27 28 29 30 30 28 27 27 24 24 22 19 18 17 14 11 6 6
21 27 17 10 2 5 11 11 9 13 5 9 16 20 17 19 21 35 55 53 43 20 18 12 7 7 6 5 13 17 14 24 32 32 31 30 29 28 28 27 27 26 24 23 22 21 18 15 14 12 8 5 5 4
3 4 1 10 8 19 15 10 12 10 12 14 14 12 16 25 26 32 34 37 30 18 7 17 18 19 13 12 15 16 22 24 24 20 31 30 27 26 26 26 22 21 20 21 18 19 14 14 12 9 7 6 7 7
9 14 14 16 13 12 16 19 10 8 11 11 12 13 13 6 13 25 20 43 17 18 12 14 23 24 26 29 28 26 27 29 30 31 28 27 29 27 28 28 22 23 21 20 16 15 14 12 9 8 8 9 10 11
11 12 17 21 13 17 9 15 11 15 7 5 8 7 7 8 12 16 14 18 13 20 19 23 24 25 32 32 31 31 30 31 36 37 33 33 33 29 27 25 23 21 19 18 15 13 11 10 9 10 12 13 14 16
18 19 22 19 30 7 10 14 14 12 10 7 7 7 8 8 11 13 9 9 19 20 23 19 19 30 36 38 39 35 31 28 33 35 32 28 31 31 25 24 20 17 16 14 11 10 10 12 14 16 18 20 22 24
16 27 20 17 21 16 13 9 12 8 9 10 8 8 6 9 7 8 6 6 22 24 23 26 29 31 35 33 32 32 31 27 24 31 28 19 18 17 15 13 13 12 11 7 7 10 14 17 21 24 28 32 35 38
18 22 15 15 15 10 10 8 11 14 9 8 10 7 8 6 9 9 4 4 11 18 23 26 26 28 30 28 25 24 26 28 21 21 26 18 12 9 9 8 8 10 15 19 23 24 27 31 35 38 39 41 45 50
14 10 16 23 11 9 9 13 13 10 12 12 7 6 6 10 8 4 9 8 10 15 18 19 19 20 21 20 19 18 16 13 6 4 6 6 6 8 12 15 19 22 26 30 34 37 39 41 44 45 47 47 47 50
15 20 12 26 17 25 8 8 11 12 8 14 5 11 7 6 5 9 9 14 13 14 14 16 16 12 10 8 6 4 3 2 6 10 11 11 14 18 21 23 28 31 32 33 34 34 36 38 42 45 48 52 55 53
15 31 11 14 10 16 18 10 11 11 18 4 4 5 6 8 19 25 22 16 13 11 9 8 10 12 12 10 9 7 5 3 5 10 13 14 14 13 19 22 24 25 26 27 28 32 35 39 43 50 55 59 61 61
34 40 11 16 10 12 21 21 27 36 34 29 27 43 42 37 30 25 18 13 8 4 7 12 13 9 5 5 8 8 5 4 6 8 10 12 15 17 19 21 23 26 30 34 36 37 38 42 45 45 47 50 51 53
16 18 17 19 12 12 20 32 48 52 59 58 55 51 33 25 34 27 24 21 15 10 8 11 13 10 9 8 8 9 11 12 14 17 20 22 24 26 28 29 31 34 36 38 39 42 45 47 49 52 52 52 50 52
20 18 7 7 5 13 11 10 12 12 13 13 14 10 8 6 6 6 10 19 26 24 17 12 13 12 13 14 15 17 17 16 20 24 27 29 28 28 30 30 32 36 36 37 39 41 44 48 51 52 54 54 53 53
9 13 13 6 7 8 17 11 9 5 11 8 11 12 10 5 5 4 9 12 19 23 19 15 16 16 17 18 20 20 21 24 26 27 29 30 30 30 31 32 34 36 38 40 42 45 48 49 51 51 52 54 56 56
Wind_Direction_850mb
265 261 263 261 253 249 245 239 239 244 243 253 258 252 262 260 229 246 249 219 219 216 237 214 221 207 187 206 227 151 129 200 44 215 205 174 188 201 173 183 174 174 178 198 213 232 247 164 105 176 242 11 0 330
264 259 256 258 253 246 239 237 241 245 249 254 253 249 248 254 256 249 237 247 224 224 232 220 227 229 223 231 233 192 252 176 191 187 196 127 155 171 177 229 111 215 196 178 193 208 182 197 174 195 244 332 341 331
267 256 252 253 254 247 242 242 245 249 253 251 249 251 242 244 250 244 242 250 231 210 222 223 227 226 228 226 230 209 220 207 212 196 159 146 211 124 184 227 129 237 132 166 129 209 217 223 215 195 199 284 320 293
269 259 253 254 254 246 243 246 250 253 250 251 247 243 243 237 238 241 236 240 233 259 206 228 227 234 235 229 223 230 230 209 212 196 173 172 177 189 209 203 150 200 147 159 284 263 304 258 229 199 181 173 2 18
271 258 255 252 251 250 245 246 251 261 256 250 245 242 239 236 235 240 251 247 245 219 260 219 217 219 216 216 217 219 228 217 178 167 189 215 133 141 58 97 218 198 175 181 219 196 158 271 263 206 216 202 353 36
267 256 252 248 238 235 232 238 249 262 259 256 251 247 241 236 231 235 257 253 241 243 225 210 239 192 196 198 198 205 214 212 194 180 175 200 188 174 168 198 250 201 204 201 237 222 184 61 61 201 223 239 268 199
258 247 241 235 231 231 226 239 252 253 261 251 248 254 247 234 225 216 209 245 225 220 222 110 243 192 172 167 188 199 197 193 185 167 182 159 199 186 156 191 229 192 181 194 223 170 206 232 124 156 215 210 200 180
252 237 224 224 237 246 252 255 260 258 267 275 276 270 267 248 232 231 227 233 195 184 198 174 169 169 170 148 158 186 176 176 177 159 149 156 144 160 215 235 206 178 181 189 177 192 227 171 147 110 102 111 151 174
248 234 221 229 242 249 253 253 256 259 264 270 289 286 274 243 226 229 231 236 223 205 205 121 175 190 165 133 142 162 168 176 156 145 211 148 166 211 201 225 134 139 164 162 176 143 125 129 127 117 110 108 111 128
243 241 232 234 248 253 259 250 250 248 257 260 281 284 238 224 224 216 217 198 209 206 195 182 135 202 164 137 158 128 166 153 171 226 146 132 228 103 100 129 140 145 157 170 172 166 160 150 139 141 140 154 177 200
241 234 234 242 247 254 256 243 238 245 238 251 221 221 240 194 176 200 273 182 178 170 179 136 155 178 181 127 137 168 166 133 133 237 135 200 278 118 109 136 148 152 148 131 150 156 154 152 148 150 155 185 259 264
212 222 230 234 240 242 259 257 244 236 226 207 270 265 206 178 182 191 194 253 187 175 174 163 159 161 142 146 112 172 135 120 198 154 104 237 117 60 149 169 154 150 150 147 152 165 179 199 225 248 260 263 259 254
219 220 209 200 238 264 277 279 249 252 262 251 222 222 211 194 202 190 194 195 160 174 174 154 147 140 127 141 114 141 123 194 127 80 211 179 98 42 49 111 132 125 139 149 157 172 179 182 190 201 217 234 248 252
155 173 216 257 296 300 279 275 269 270 235 206 175 219 207 190 228 204 184 156 137 175 145 154 114 143 139 128 140 129 129 115 105 152 226 106 40 25 44 67 139 122 131 133 134 134 139 137 136 130 133 136 131 175
154 202 237 334 345 330 303 277 262 223 220 185 174 225 205 201 46 307 150 107 70 161 152 134 93 115 143 115 103 119 107 166 191 206 113 115 84 73 83 90 99 110 115 118 118 121 122 119 120 116 109 108 112 119
131 212 241 331 350 344 337 328 203 194 208 95 58 101 328 89 350 17 355 92 125 168 157 106 126 124 110 120 124 119 135 190 138 101 108 120 99 90 91 96 99 101 106 109 109 107 105 104 100 95 94 92 88 82
287 225 314 333 344 342 340 337 131 69 60 37 35 39 79 72 46 28 13 338 24 203 147 118 110 153 100 92 82 12 58 105 116 106 108 110 106 98 96 99 102 103 108 111 111 113 113 105 100 103 103 99 99 101
296 298 305 321 333 341 8 42 71 64 63 31 69 35 70 51 22 22 4 4 25 19 44 61 19 51 49 104 124 68 89 93 99 104 102 101 97 99 102 102 101 101 104 106 106 105 102 107 113 105 105 103 90 84
309 302 305 321 337 345 62 50 53 89 64 82 78 57 68 78 46 44 40 56 73 84 85 47 56 44 44 47 89 80 95 127 102 99 91 95 101 102 102 102 101 102 103 102 104 103 100 98 94 92 89 88 89 78
263 273 299 310 261 105 81 47 66 83 72 87 62 46 65 68 47 36 43 51 53 50 49 44 40 25 45 54 85 108 114 125 129 107 98 96 99 108 109 109 109 109 108 105 103 97 92 93 94 85 77 56 31 354
238 246 316 164 78 65 76 44 62 67 95 72 75 60 79 51 37 22 27 28 57 35 64 48 56 63 77 83 103 111 118 131 142 130 118 108 107 110 111 110 111 113 112 107 102 96 92 81 72 61 42 15 355 340
91 107 90 70 71 71 66 38 61 67 73 93 65 56 48 41 33 24 34 40 64 18 29 49 63 71 82 86 91 101 108 113 116 120 119 115 117 121 117 112 120 111 105 95 92 83 71 62 44 21 360 348 337 324
78 62 55 35 77 48 20 25 53 28 60 63 59 52 47 56 49 38 74 51 62 22 55 75 83 88 89 93 95 101 109 111 110 110 113 113 110 109 111 109 99 92 91 84 71 61 50 35 11 353 347 336 327 319
62 52 31 36 27 21 13 33 31 30 49 47 49 57 41 41 55 67 70 54 7 52 78 92 106 103 98 97 92 94 101 108 110 109 107 113 110 100 94 89 86 82 74 61 41 22 7 351 344 335 327 323 320 316
74 14 26 5 11 13 29 24 10 11 56 32 71 57 41 41 68 68 68 31 31 55 72 89 95 95 94 92 94 95 101 104 107 110 104 90 87 96 95 83 69 59 46 12 331 331 329 324 319 317 318 316 312 309
68 25 39 6 4 22 2 41 28 15 4 58 49 63 49 64 68 68 80 80 47 59 70 77 84 89 88 92 101 104 100 97 92 98 100 98 88 62 48 31 2 341 331 328 323 319 316 315 314 312 310 309 309 309
44 350 15 17 359 359 60 45 34 45 42 28 4 28 51 66 73 89 122 123 94 79 70 72 74 75 78 79 82 87 93 95 97 55 47 22 352 337 332 328 325 324 323 324 323 321 319 318 317 316 315 314 314 314
49 32 20 356 39 31 59 42 31 21 4 346 336 39 66 56 104 140 133 128 104 79 59 55 58 68 75 74 69 68 58 317 306 309 310 310 313 316 318 324 324 323 323 321 320 319 319 319 318 317 318 317 316 316
20 350 20 21 35 52 38 29 10 348 336 357 62 85 101 80 122 130 131 120 104 76 37 39 42 50 47 39 37 24 12 321 282 270 283 290 301 306 314 316 316 316 317 317 317 317 318 317 317 316 315 315 314 313
10 20 58 27 47 46 14 43 44 58 71 87 100 105 98 101 112 118 119 111 93 84 76 63 56 53 35 6 343 351 346 337 332 329 332 331 328 320 317 317 315 314 314 315 315 314 312 308 307 307 310 313 315 315
34 35 46 47 72 59 74 80 75 75 81 83 92 91 94 102 94 91 89 78 61 42 33 23 6 4 358 344 337 332 329 326 329 328 325 322 320 318 316 316 315 315 316 315 314 314 316 318 320 321 322 322 323 321
32 37 49 63 56 40 72 63 63 71 61 65 52 67 75 99 107 116 57 40 37 42 52 30 6 357 351 349 344 337 333 325 321 321 318 316 316 312 310 310 310 310 311 313 317 319 321 321 320 322 322 322 323 323
40 38 50 53 34 29 15 21 50 77 53 48 40 36 36 49 90 53 5 3 4 2 1 1 357 354 352 348 342 335 331 328 325 322 319 319 318 317 317 317 316 317 317 319 322 322 322 321 319 320 320 320 320 322